sat.trackr.live / text

‹ back to catalog

FASTSAT-HSV01 (USA 220)

NORAD 37225 · 2010-062D

PAYLOAD ACTIVE UNKNOWN

§ Identity

Operator
Country
US
Launch date
2010-11-20
Launch site
KODAK
Launch vehicle
Mass (kg)
RCS (m²)

External: N2YO · Heavens-Above · Gunter

§ Orbital elements

Epoch: 2026-05-25T05:09:54.631296Z

Period
97.16 min
Inclination
71.9718°
Eccentricity
0.0016415
Mean motion
14.82112645 rev/d
Perigee alt
611.2 km
Apogee alt
634.2 km
Semi-major
7,000.8 km
B*
5.1733e-5
RAAN
210.8072°
Arg perigee
178.3537°
Mean anomaly
181.7685°
Rev number
11,072

§ Raw data

FASTSAT-HSV01 (USA 220)1 37225U 10062D   26145.21521564  .00000354  00000+0  51733-4 0  99962 37225  71.9718 210.8072 0016415 178.3537 181.7685 14.82112645110726

JSON: /api/v1/satellites/37225 · /tle

For live sub-satellite position, see the globe view (requires WebGL).

§ Visibility from observer

Set your observer location to see the next 7 days of passes ≥ 10°. The values pass through the URL so the page stays shareable.

No JS? Fill the form by hand. The geolocation button needs JavaScript.